TimePST,TemperatureF,Dew PointF,Humidity,Sea Level PressureIn,VisibilityMPH,Wind Direction,Wind SpeedMPH,Gust SpeedMPH,PrecipitationIn,Events,Conditions,WindDirDegrees,DateUTC
12:53 AM,36.0,32.0,86,29.94,7.0,Calm,Calm,-,N/A,,Overcast,0,2013-02-05 08:53:00
1:53 AM,34.0,30.0,85,29.94,7.0,NW,8.1,-,N/A,,Clear,310,2013-02-05 09:53:00
2:53 AM,34.0,30.0,85,29.91,7.0,WNW,5.8,-,N/A,,Clear,290,2013-02-05 10:53:00
3:53 AM,32.0,28.0,85,29.91,7.0,NW,3.5,-,N/A,,Clear,310,2013-02-05 11:53:00
4:53 AM,28.0,25.0,88,29.91,5.0,Calm,Calm,-,N/A,,Clear,0,2013-02-05 12:53:00
5:53 AM,28.9,26.1,89,29.90,6.0,WSW,4.6,-,N/A,,Clear,240,2013-02-05 13:53:00
6:53 AM,28.9,26.1,89,29.90,6.0,WNW,6.9,-,N/A,,Clear,300,2013-02-05 14:53:00
7:53 AM,33.1,30.0,89,29.91,5.0,Calm,Calm,-,N/A,,Mostly Cloudy,0,2013-02-05 15:53:00
8:53 AM,34.0,30.9,89,29.92,5.0,Calm,Calm,-,N/A,,Mostly Cloudy,0,2013-02-05 16:53:00
9:53 AM,36.0,32.0,86,29.91,6.0,Calm,Calm,-,N/A,,Overcast,0,2013-02-05 17:53:00
10:53 AM,37.9,32.0,79,29.90,6.0,Calm,Calm,-,N/A,,Haze,0,2013-02-05 18:53:00
11:53 AM,45.0,34.0,65,29.88,8.0,Calm,Calm,-,N/A,,Scattered Clouds,0,2013-02-05 19:53:00
12:53 PM,50.0,36.0,59,29.86,10.0,Calm,Calm,-,N/A,,Scattered Clouds,0,2013-02-05 20:53:00
1:53 PM,53.1,36.0,52,29.84,10.0,Calm,Calm,-,N/A,,Scattered Clouds,0,2013-02-05 21:53:00
2:53 PM,55.9,32.0,40,29.84,10.0,Calm,Calm,-,N/A,,Mostly Cloudy,0,2013-02-05 22:53:00
3:53 PM,55.0,28.0,35,29.85,10.0,WSW,9.2,-,N/A,,Scattered Clouds,240,2013-02-05 23:53:00
4:53 PM,50.0,34.0,54,29.86,10.0,SSW,15.0,24.2,N/A,,Mostly Cloudy,210,2013-02-06 00:53:00
5:53 PM,48.0,32.0,54,29.87,10.0,SSW,15.0,21.9,N/A,,Partly Cloudy,210,2013-02-06 01:53:00
6:53 PM,45.0,30.9,58,29.88,10.0,Variable,3.5,-,N/A,,Clear,0,2013-02-06 02:53:00
7:18 PM,46.4,30.2,53,29.86,10.0,SSW,12.7,24.2,N/A,,Clear,210,2013-02-06 03:18:00
7:53 PM,46.9,30.9,54,29.88,10.0,SSW,15.0,20.7,N/A,,Clear,200,2013-02-06 03:53:00
8:53 PM,46.0,33.1,61,29.88,10.0,SSW,24.2,35.7,N/A,,Clear,200,2013-02-06 04:53:00
9:53 PM,44.1,32.0,63,29.93,10.0,Calm,Calm,-,N/A,,Clear,0,2013-02-06 05:53:00
10:53 PM,39.2,30.2,70,29.91,10.0,NW,3.5,-,N/A,,Clear,310,2013-02-06 06:53:00
11:53 PM,33.8,28.4,81,29.93,10.0,WNW,5.8,-,N/A,,Partly Cloudy,300,2013-02-06 07:53:00